Time,TemperatureF,DewpointF,PressureIn,WindDirection,WindDirectionDegrees,WindSpeedMPH,WindSpeedGustMPH,Humidity,HourlyPrecipIn,Conditions,Clouds,dailyrainin,SoftwareType,DateUTC
2013-04-25 00:09:00,28.6,26.0,29.80,WSW,247,6.8,-999.0,90,-99.99,,,0.00,Acu-Link.com,2013-04-25 08:09:00,
2013-04-25 00:24:00,28.4,25.8,29.81,West,270,8.3,-999.0,90,-99.99,,,0.00,Acu-Link.com,2013-04-25 08:24:00,
2013-04-25 00:39:00,27.3,25.0,29.80,West,270,2.7,-999.0,91,-99.99,,,0.00,Acu-Link.com,2013-04-25 08:39:00,
2013-04-25 00:54:00,27.3,24.8,29.81,West,270,4.7,-999.0,90,-99.99,,,0.00,Acu-Link.com,2013-04-25 08:54:00,
2013-04-25 01:09:00,27.3,24.2,29.81,West,270,4.7,-999.0,88,-99.99,,,0.00,Acu-Link.com,2013-04-25 09:09:00,
2013-04-25 01:25:00,27.0,23.9,29.81,WNW,292,5.3,-999.0,88,-99.99,,,0.00,Acu-Link.com,2013-04-25 09:25:00,
2013-04-25 01:40:00,26.8,23.2,29.82,NW,315,7.3,-999.0,86,-99.99,,,0.00,Acu-Link.com,2013-04-25 09:40:00,
2013-04-25 01:55:00,26.2,20.9,29.82,NNW,337,5.8,-999.0,80,-99.99,,,0.00,Acu-Link.com,2013-04-25 09:55:00,
2013-04-25 02:10:00,25.9,19.7,29.82,NNW,337,7.3,-999.0,77,-99.99,,,0.00,Acu-Link.com,2013-04-25 10:10:00,
2013-04-25 02:25:00,25.3,18.8,29.82,North,0,4.7,-999.0,76,-99.99,,,0.00,Acu-Link.com,2013-04-25 10:25:00,
2013-04-25 02:41:00,25.0,17.6,29.82,North,0,6.3,-999.0,73,-99.99,,,0.00,Acu-Link.com,2013-04-25 10:41:00,
2013-04-25 02:56:00,24.3,16.3,29.83,North,0,4.7,-999.0,71,-99.99,,,0.00,Acu-Link.com,2013-04-25 10:56:00,
2013-04-25 03:11:00,24.1,14.8,29.83,NNW,337,6.8,-999.0,67,-99.99,,,0.00,Acu-Link.com,2013-04-25 11:11:00,
2013-04-25 03:26:00,23.9,12.8,29.83,NNW,337,8.9,-999.0,62,-99.99,,,0.00,Acu-Link.com,2013-04-25 11:26:00,
2013-04-25 03:42:00,23.7,10.7,29.83,NNE,22,12.5,-999.0,57,-99.99,,,0.00,Acu-Link.com,2013-04-25 11:42:00,
2013-04-25 03:57:00,23.7,6.9,29.83,WNW,292,8.9,-999.0,48,-99.99,,,0.00,Acu-Link.com,2013-04-25 11:57:00,
2013-04-25 04:12:00,23.0,3.4,29.84,NNE,22,8.9,-999.0,42,-99.99,,,0.00,Acu-Link.com,2013-04-25 12:12:00,
2013-04-25 04:27:00,22.3,3.7,29.84,NE,45,9.9,-999.0,44,-99.99,,,0.00,Acu-Link.com,2013-04-25 12:27:00,
2013-04-25 04:42:00,21.6,3.1,29.85,NNE,22,9.4,-999.0,44,-99.99,,,0.00,Acu-Link.com,2013-04-25 12:42:00,
2013-04-25 04:58:00,21.2,1.7,29.85,North,0,9.4,-999.0,42,-99.99,,,0.00,Acu-Link.com,2013-04-25 12:58:00,
2013-04-25 05:13:00,20.5,1.6,29.85,North,0,11.4,-999.0,43,-99.99,,,0.00,Acu-Link.com,2013-04-25 13:13:00,
2013-04-25 05:28:00,19.6,0.3,29.86,NW,315,6.8,-999.0,42,-99.99,,,0.00,Acu-Link.com,2013-04-25 13:28:00,
2013-04-25 05:43:00,18.9,0.1,29.87,NNW,337,8.3,-999.0,43,-99.99,,,0.00,Acu-Link.com,2013-04-25 13:43:00,
2013-04-25 05:58:00,19.0,0.2,29.87,North,0,9.9,-999.0,43,-99.99,,,0.00,Acu-Link.com,2013-04-25 13:58:00,
2013-04-25 06:14:00,19.2,0.4,29.88,NNW,337,9.4,-999.0,43,-99.99,,,0.00,Acu-Link.com,2013-04-25 14:14:00,
2013-04-25 06:29:00,19.9,0.0,29.89,NNW,337,5.8,-999.0,41,-99.99,,,0.00,Acu-Link.com,2013-04-25 14:29:00,
2013-04-25 06:44:00,19.9,1.1,29.89,NNE,22,5.8,-999.0,43,-99.99,,,0.00,Acu-Link.com,2013-04-25 14:44:00,
2013-04-25 06:59:00,20.7,1.8,29.89,East,90,6.8,-999.0,43,-99.99,,,0.00,Acu-Link.com,2013-04-25 14:59:00,
2013-04-25 07:15:00,20.8,0.9,29.90,North,0,6.3,-999.0,41,-99.99,,,0.00,Acu-Link.com,2013-04-25 15:15:00,
2013-04-25 07:30:00,22.1,0.4,29.90,NNW,337,8.3,-999.0,38,-99.99,,,0.00,Acu-Link.com,2013-04-25 15:30:00,
2013-04-25 07:45:00,23.9,0.3,29.90,North,0,4.2,-999.0,35,-99.99,,,0.00,Acu-Link.com,2013-04-25 15:45:00,
2013-04-25 08:00:00,22.6,-0.3,29.90,NNE,22,10.4,-999.0,36,-99.99,,,0.00,Acu-Link.com,2013-04-25 16:00:00,
2013-04-25 08:15:00,23.7,-0.5,29.91,NNE,22,5.3,-999.0,34,-99.99,,,0.00,Acu-Link.com,2013-04-25 16:15:00,
2013-04-25 08:31:00,24.1,-1.4,29.91,NNE,22,9.4,-999.0,32,-99.99,,,0.00,Acu-Link.com,2013-04-25 16:31:00,
2013-04-25 08:46:00,25.0,-2.7,29.91,NNE,22,9.9,-999.0,29,-99.99,,,0.00,Acu-Link.com,2013-04-25 16:46:00,
2013-04-25 09:01:00,23.2,-2.9,29.90,NNW,337,5.8,-999.0,31,-99.99,,,0.00,Acu-Link.com,2013-04-25 17:01:00,
2013-04-25 09:16:00,24.8,-2.9,29.88,NW,315,10.4,-999.0,29,-99.99,,,0.00,Acu-Link.com,2013-04-25 17:16:00,
2013-04-25 09:31:00,24.3,-4.1,29.88,NW,315,9.4,-999.0,28,-99.99,,,0.00,Acu-Link.com,2013-04-25 17:31:00,
2013-04-25 09:47:00,24.8,-4.4,29.87,NNW,337,7.3,-999.0,27,-99.99,,,0.00,Acu-Link.com,2013-04-25 17:47:00,
2013-04-25 10:02:00,25.0,-5.0,29.86,WNW,292,10.9,-999.0,26,-99.99,,,0.00,Acu-Link.com,2013-04-25 18:02:00,
2013-04-25 10:18:00,25.5,-6.2,29.85,West,270,13.5,-999.0,24,-99.99,,,0.00,Acu-Link.com,2013-04-25 18:18:00,
2013-04-25 10:33:00,25.5,-7.1,29.85,NNE,22,13.5,-999.0,23,-99.99,,,0.00,Acu-Link.com,2013-04-25 18:33:00,
2013-04-25 10:48:00,25.9,-6.7,29.85,WNW,292,7.3,-999.0,23,-99.99,,,0.00,Acu-Link.com,2013-04-25 18:48:00,
2013-04-25 11:04:00,27.0,-5.8,29.85,WNW,292,12.5,-999.0,23,-99.99,,,0.00,Acu-Link.com,2013-04-25 19:04:00,
2013-04-25 11:19:00,27.1,-5.7,29.85,NW,315,10.9,-999.0,23,-99.99,,,0.00,Acu-Link.com,2013-04-25 19:19:00,
2013-04-25 11:34:00,27.7,-6.1,29.86,NW,315,8.9,-999.0,22,-99.99,,,0.00,Acu-Link.com,2013-04-25 19:34:00,
2013-04-25 11:49:00,27.9,-5.0,29.88,NNE,22,10.4,-999.0,23,-99.99,,,0.00,Acu-Link.com,2013-04-25 19:49:00,
2013-04-25 12:05:00,29.1,-3.1,29.89,WNW,292,10.4,-999.0,24,-99.99,,,0.00,Acu-Link.com,2013-04-25 20:05:00,
2013-04-25 12:20:00,29.1,-4.0,29.89,West,270,8.3,-999.0,23,-99.99,,,0.00,Acu-Link.com,2013-04-25 20:20:00,
2013-04-25 12:35:00,29.1,-4.9,29.90,West,270,6.8,-999.0,22,-99.99,,,0.00,Acu-Link.com,2013-04-25 20:35:00,
2013-04-25 12:51:00,30.4,-2.0,29.90,WNW,292,11.4,-999.0,24,-99.99,,,0.00,Acu-Link.com,2013-04-25 20:51:00,
2013-04-25 13:06:00,30.2,-2.2,29.90,WNW,292,5.8,-999.0,24,-99.99,,,0.00,Acu-Link.com,2013-04-25 21:06:00,
2013-04-25 13:21:00,31.5,-0.2,29.90,West,270,7.8,-999.0,25,-99.99,,,0.00,Acu-Link.com,2013-04-25 21:21:00,
2013-04-25 13:36:00,30.6,-1.0,29.90,West,270,9.9,-999.0,25,-99.99,,,0.00,Acu-Link.com,2013-04-25 21:36:00,
2013-04-25 13:51:00,30.9,-0.7,29.89,NW,315,10.4,-999.0,25,-99.99,,,0.00,Acu-Link.com,2013-04-25 21:51:00,
2013-04-25 14:07:00,30.6,-0.2,29.89,NW,315,7.8,-999.0,26,-99.99,,,0.00,Acu-Link.com,2013-04-25 22:07:00,
2013-04-25 14:22:00,32.0,1.0,29.89,NNW,337,9.9,-999.0,26,-99.99,,,0.00,Acu-Link.com,2013-04-25 22:22:00,
2013-04-25 14:37:00,31.8,0.9,29.88,West,270,8.9,-999.0,26,-99.99,,,0.00,Acu-Link.com,2013-04-25 22:37:00,
2013-04-25 14:52:00,31.5,1.4,29.88,West,270,6.3,-999.0,27,-99.99,,,0.00,Acu-Link.com,2013-04-25 22:52:00,
2013-04-25 15:07:00,33.1,2.8,29.89,WNW,292,10.9,-999.0,27,-99.99,,,0.00,Acu-Link.com,2013-04-25 23:07:00,
2013-04-25 15:23:00,32.4,2.2,29.87,WNW,292,8.9,-999.0,27,-99.99,,,0.00,Acu-Link.com,2013-04-25 23:23:00,
2013-04-25 15:38:00,32.7,2.5,29.88,WNW,292,5.8,-999.0,27,-99.99,,,0.00,Acu-Link.com,2013-04-25 23:38:00,
2013-04-25 15:53:00,33.1,2.8,29.87,West,270,6.8,-999.0,27,-99.99,,,0.00,Acu-Link.com,2013-04-25 23:53:00,
2013-04-25 16:09:00,33.8,3.4,29.86,WNW,292,7.3,-999.0,27,-99.99,,,0.00,Acu-Link.com,2013-04-26 00:09:00,
2013-04-25 16:24:00,32.9,2.6,29.86,West,270,10.9,-999.0,27,-99.99,,,0.00,Acu-Link.com,2013-04-26 00:24:00,
2013-04-25 16:39:00,34.3,4.6,29.87,NNW,337,7.3,-999.0,28,-99.99,,,0.00,Acu-Link.com,2013-04-26 00:39:00,
2013-04-25 16:54:00,34.7,3.4,29.86,WNW,292,8.3,-999.0,26,-99.99,,,0.00,Acu-Link.com,2013-04-26 00:54:00,
2013-04-25 17:09:00,32.9,2.6,29.87,West,270,8.3,-999.0,27,-99.99,,,0.00,Acu-Link.com,2013-04-26 01:09:00,
2013-04-25 17:25:00,34.3,4.6,29.87,West,270,5.8,-999.0,28,-99.99,,,0.00,Acu-Link.com,2013-04-26 01:25:00,
2013-04-25 17:40:00,34.0,7.3,29.86,NNW,337,8.3,-999.0,32,-99.99,,,0.00,Acu-Link.com,2013-04-26 01:40:00,
2013-04-25 17:55:00,34.3,6.1,29.86,West,270,9.4,-999.0,30,-99.99,,,0.00,Acu-Link.com,2013-04-26 01:55:00,
2013-04-25 18:10:00,33.1,7.8,29.86,WNW,292,9.4,-999.0,34,-99.99,,,0.00,Acu-Link.com,2013-04-26 02:10:00,
2013-04-25 18:26:00,34.0,7.3,29.86,NW,315,6.8,-999.0,32,-99.99,,,0.00,Acu-Link.com,2013-04-26 02:26:00,
2013-04-25 18:41:00,34.7,7.9,29.86,West,270,6.8,-999.0,32,-99.99,,,0.00,Acu-Link.com,2013-04-26 02:41:00,
2013-04-25 18:56:00,35.1,6.1,29.85,West,270,7.8,-999.0,29,-99.99,,,0.00,Acu-Link.com,2013-04-26 02:56:00,
2013-04-25 19:11:00,34.3,4.6,29.85,North,0,6.3,-999.0,28,-99.99,,,0.00,Acu-Link.com,2013-04-26 03:11:00,
2013-04-25 19:26:00,34.2,3.7,29.85,West,270,7.8,-999.0,27,-99.99,,,0.00,Acu-Link.com,2013-04-26 03:26:00,
2013-04-25 19:42:00,33.3,3.0,29.85,NW,315,6.8,-999.0,27,-99.99,,,0.00,Acu-Link.com,2013-04-26 03:42:00,
2013-04-25 19:57:00,33.3,3.0,29.85,NNW,337,7.8,-999.0,27,-99.99,,,0.00,Acu-Link.com,2013-04-26 03:57:00,
2013-04-25 20:12:00,33.3,3.0,29.85,NW,315,7.3,-999.0,27,-99.99,,,0.00,Acu-Link.com,2013-04-26 04:12:00,
2013-04-25 20:28:00,32.2,5.0,29.85,North,0,6.8,-999.0,31,-99.99,,,0.00,Acu-Link.com,2013-04-26 04:28:00,
2013-04-25 20:43:00,31.3,5.6,29.85,North,0,7.8,-999.0,33,-99.99,,,0.00,Acu-Link.com,2013-04-26 04:43:00,
2013-04-25 20:58:00,30.6,5.6,29.84,NNE,22,7.3,-999.0,34,-99.99,,,0.00,Acu-Link.com,2013-04-26 04:58:00,
2013-04-25 21:13:00,29.5,6.5,29.84,NNE,22,6.3,-999.0,37,-99.99,,,0.00,Acu-Link.com,2013-04-26 05:13:00,
2013-04-25 21:28:00,28.4,6.1,29.84,NNW,337,4.2,-999.0,38,-99.99,,,0.00,Acu-Link.com,2013-04-26 05:28:00,
2013-04-25 21:44:00,27.5,5.8,29.84,NNE,22,4.7,-999.0,39,-99.99,,,0.00,Acu-Link.com,2013-04-26 05:44:00,
2013-04-25 21:59:00,26.1,5.7,29.84,NNE,22,4.2,-999.0,41,-99.99,,,0.00,Acu-Link.com,2013-04-26 05:59:00,
2013-04-25 22:14:00,24.8,5.5,29.85,NNE,22,3.2,-999.0,43,-99.99,,,0.00,Acu-Link.com,2013-04-26 06:14:00,
2013-04-25 22:29:00,24.1,5.4,29.84,NNW,337,4.7,-999.0,44,-99.99,,,0.00,Acu-Link.com,2013-04-26 06:29:00,
2013-04-25 22:44:00,23.4,5.2,29.84,NNE,22,3.2,-999.0,45,-99.99,,,0.00,Acu-Link.com,2013-04-26 06:44:00,
2013-04-25 23:00:00,22.3,4.7,29.84,NNE,22,1.7,-999.0,46,-99.99,,,0.00,Acu-Link.com,2013-04-26 07:00:00,
2013-04-25 23:15:00,21.0,5.3,29.84,NNE,22,0.0,-999.0,50,-99.99,,,0.00,Acu-Link.com,2013-04-26 07:15:00,
2013-04-25 23:30:00,19.9,5.1,29.84,NNE,22,0.0,-999.0,52,-99.99,,,0.00,Acu-Link.com,2013-04-26 07:30:00,
2013-04-25 23:45:00,18.1,4.3,29.83,NNE,22,0.0,-999.0,54,-99.99,,,0.00,Acu-Link.com,2013-04-26 07:45:00,